******************************************************************************* JPL/HORIZONS (2023 CX1) 2024-Apr-18 17:23:35 Rec #:50649890 (+COV) Soln.date: 2023-Feb-16_12:37:28 # obs: 299 (1 days) IAU76/J2000 helio. ecliptic osc. elements (au, days, deg., period=Julian yrs): EPOCH= 2459988.5 ! 2023-Feb-13.00 (TDB) Residual RMS= .74934 EC= .4551632597828492 QR= .918270085071718 TP= 2460018.9953348022 OM= 323.8325593676868 W= 219.0364365617507 IN= 3.564946888577392 A= 1.685404117030968 MA= 346.2633319368164 ADIST= 2.452538148990218 PER= 2.18809 N= .450451459 ANGMOM= .019884859 DAN= 2.06702 DDN= .98721 L= 182.8147161 B= -2.2443807 MOID= 2.991E-5 TP= 2023-Mar-15.4953348022 Asteroid physical parameters (km, seconds, rotational period in hours): GM= n.a. RAD= n.a. ROTPER= n.a. H= 32.72 G= .150 B-V= n.a. ALBEDO= n.a. STYP= n.a. ASTEROID comments: 1: soln ref.= JPL#4, OCC=5 2: source=ORB ******************************************************************************* ******************************************************************************* Ephemeris / WWW_USER Thu Apr 18 17:23:35 2024 Pasadena, USA / Horizons ******************************************************************************* Target body name: (2023 CX1) {source: JPL#4} Center body name: Earth (399) {source: DE441} Center-site name: GEOCENTRIC ******************************************************************************* Start time : A.D. 2022-Feb-28 15:00:00.0000 UT Stop time : A.D. 2022-Feb-28 16:00:00.0000 UT Step-size : 1 minutes ******************************************************************************* Target pole/equ : undefined Target radii : undefined Center geodetic : 0.0, 0.0, -6378.137 {E-lon(deg),Lat(deg),Alt(km)} Center cylindric: 0.0, 0.0, 0.0 {E-lon(deg),Dxy(km),Dz(km)} Center pole/equ : ITRF93 {East-longitude positive} Center radii : 6378.137, 6378.137, 6356.752 km {Equator_a, b, pole_c} Target primary : Sun Vis. interferer : MOON (R_eq= 1737.400) km {source: DE441} Rel. light bend : Sun {source: DE441} Rel. lght bnd GM: 1.3271E+11 km^3/s^2 Small-body perts: Yes {source: SB441-N16} Atmos refraction: NO (AIRLESS) RA format : HMS Time format : CAL Calendar mode : Mixed Julian/Gregorian EOP file : eop.240418.p240712 EOP coverage : DATA-BASED 1962-JAN-20 TO 2024-APR-18. PREDICTS-> 2024-JUL-11 Units conversion: 1 au= 149597870.700 km, c= 299792.458 km/s, 1 day= 86400.0 s Table cut-offs 1: Elevation (-90.0deg=NO ),Airmass (>38.000=NO), Daylight (NO ) Table cut-offs 2: Solar elongation ( 0.0,180.0=NO ),Local Hour Angle( 0.0=NO ) Table cut-offs 3: RA/DEC angular rate ( 0.0=NO ) ******************************************************************************* Initial IAU76/J2000 heliocentric ecliptic osculating elements (au, days, deg.): EPOCH= 2459988.5 ! 2023-Feb-13.00 (TDB) Residual RMS= .74934 EC= .4551632597828492 QR= .918270085071718 TP= 2460018.9953348022 OM= 323.8325593676868 W= 219.0364365617507 IN= 3.564946888577392 Equivalent ICRF heliocentric cartesian coordinates (au, au/d): X=-7.957437725053662E-01 Y= 5.369484927013383E-01 Z= 2.329939969745115E-01 VX=-8.455668344546812E-03 VY=-1.667796939174505E-02 VZ=-8.595885058974514E-03 Asteroid physical parameters (km, seconds, rotational period in hours): GM= n.a. RAD= n.a. ROTPER= n.a. H= 32.72 G= .150 B-V= n.a. ALBEDO= n.a. STYP= n.a. ******************************************************************************* Date__(UT)__HR:MN r rdot ************************************************** $$SOE 2022-Feb-28 15:00 2.337519713789 0.0026127 2022-Feb-28 15:01 2.337519714831 0.0025845 2022-Feb-28 15:02 2.337519715862 0.0025562 2022-Feb-28 15:03 2.337519716881 0.0025280 2022-Feb-28 15:04 2.337519717890 0.0024997 2022-Feb-28 15:05 2.337519718886 0.0024715 2022-Feb-28 15:06 2.337519719872 0.0024432 2022-Feb-28 15:07 2.337519720846 0.0024150 2022-Feb-28 15:08 2.337519721809 0.0023867 2022-Feb-28 15:09 2.337519722761 0.0023585 2022-Feb-28 15:10 2.337519723701 0.0023302 2022-Feb-28 15:11 2.337519724630 0.0023020 2022-Feb-28 15:12 2.337519725547 0.0022737 2022-Feb-28 15:13 2.337519726454 0.0022454 2022-Feb-28 15:14 2.337519727349 0.0022172 2022-Feb-28 15:15 2.337519728232 0.0021889 2022-Feb-28 15:16 2.337519729104 0.0021607 2022-Feb-28 15:17 2.337519729965 0.0021324 2022-Feb-28 15:18 2.337519730815 0.0021042 2022-Feb-28 15:19 2.337519731653 0.0020759 2022-Feb-28 15:20 2.337519732480 0.0020477 2022-Feb-28 15:21 2.337519733296 0.0020194 2022-Feb-28 15:22 2.337519734100 0.0019912 2022-Feb-28 15:23 2.337519734893 0.0019629 2022-Feb-28 15:24 2.337519735674 0.0019347 2022-Feb-28 15:25 2.337519736445 0.0019064 2022-Feb-28 15:26 2.337519737204 0.0018782 2022-Feb-28 15:27 2.337519737951 0.0018499 2022-Feb-28 15:28 2.337519738688 0.0018217 2022-Feb-28 15:29 2.337519739412 0.0017934 2022-Feb-28 15:30 2.337519740126 0.0017652 2022-Feb-28 15:31 2.337519740828 0.0017369 2022-Feb-28 15:32 2.337519741519 0.0017087 2022-Feb-28 15:33 2.337519742199 0.0016804 2022-Feb-28 15:34 2.337519742867 0.0016522 2022-Feb-28 15:35 2.337519743524 0.0016239 2022-Feb-28 15:36 2.337519744170 0.0015957 2022-Feb-28 15:37 2.337519744804 0.0015674 2022-Feb-28 15:38 2.337519745427 0.0015392 2022-Feb-28 15:39 2.337519746039 0.0015109 2022-Feb-28 15:40 2.337519746639 0.0014827 2022-Feb-28 15:41 2.337519747228 0.0014544 2022-Feb-28 15:42 2.337519747806 0.0014262 2022-Feb-28 15:43 2.337519748372 0.0013979 2022-Feb-28 15:44 2.337519748927 0.0013697 2022-Feb-28 15:45 2.337519749471 0.0013414 2022-Feb-28 15:46 2.337519750003 0.0013132 2022-Feb-28 15:47 2.337519750524 0.0012849 2022-Feb-28 15:48 2.337519751034 0.0012566 2022-Feb-28 15:49 2.337519751532 0.0012284 2022-Feb-28 15:50 2.337519752019 0.0012001 2022-Feb-28 15:51 2.337519752495 0.0011719 2022-Feb-28 15:52 2.337519752959 0.0011436 2022-Feb-28 15:53 2.337519753412 0.0011154 2022-Feb-28 15:54 2.337519753854 0.0010871 2022-Feb-28 15:55 2.337519754284 0.0010589 2022-Feb-28 15:56 2.337519754703 0.0010306 2022-Feb-28 15:57 2.337519755111 0.0010024 2022-Feb-28 15:58 2.337519755507 0.0009741 2022-Feb-28 15:59 2.337519755892 0.0009459 2022-Feb-28 16:00 2.337519756266 0.0009176 $$EOE ******************************************************************************* Column meaning: TIME Times PRIOR to 1962 are UT1, a mean-solar time closely related to the prior but now-deprecated GMT. Times AFTER 1962 are in UTC, the current civil or "wall-clock" time-scale. UTC is kept within 0.9 seconds of UT1 using integer leap-seconds for 1972 and later years. Conversion from the internal Barycentric Dynamical Time (TDB) of solar system dynamics to the non-uniform civil UT time-scale requested for output has not been determined for UTC times after the next July or January 1st. Therefore, the last known leap-second is used as a constant over future intervals. Time tags refer to the UT time-scale conversion from TDB on Earth regardless of observer location within the solar system, although clock rates may differ due to the local gravity field and no analog to "UT" may be defined for that location. Any 'b' symbol in the 1st-column denotes a B.C. date. First-column blank (" ") denotes an A.D. date. CALENDAR SYSTEM Mixed calendar mode was active such that calendar dates after AD 1582-Oct-15 (if any) are in the modern Gregorian system. Dates prior to 1582-Oct-5 (if any) are in the Julian calendar system, which is automatically extended for dates prior to its adoption on 45-Jan-1 BC. The Julian calendar is useful for matching historical dates. The Gregorian calendar more accurately corresponds to the Earth's orbital motion and seasons. A "Gregorian-only" calendar mode is available if such physical events are the primary interest. NOTE: "n.a." in output means quantity "not available" at the print-time. 'r rdot' = The Sun's apparent range ("r", light-time aberrated) and range-rate ("rdot") relative to the target center, as seen by the observer. A positive "rdot" means the target center was moving away from the Sun, negative means moving toward the Sun. Units: AU and KM/S Computations by ... Solar System Dynamics Group, Horizons On-Line Ephemeris System 4800 Oak Grove Drive, Jet Propulsion Laboratory Pasadena, CA 91109 USA General site: https://ssd.jpl.nasa.gov/ Mailing list: https://ssd.jpl.nasa.gov/email_list.html System news : https://ssd.jpl.nasa.gov/horizons/news.html User Guide : https://ssd.jpl.nasa.gov/horizons/manual.html Connect : browser https://ssd.jpl.nasa.gov/horizons/app.html#/x API https://ssd-api.jpl.nasa.gov/doc/horizons.html command-line telnet ssd.jpl.nasa.gov 6775 e-mail/batch https://ssd.jpl.nasa.gov/ftp/ssd/hrzn_batch.txt scripts https://ssd.jpl.nasa.gov/ftp/ssd/SCRIPTS Author : Jon.D.Giorgini@jpl.nasa.gov ******************************************************************************* !$$SOF COMMAND = '2023 CX1' START_TIME = '2022-Feb-28 15:00' STOP_TIME = '2022-Feb-28 16:00' STEP_SIZE = '1 min' QUANTITIES = '19'